"Time","Temp","Dewpoint","Humidity","Pressure","Direction","Speed","Gust","Precip","PrecipRate"
"00:04:59","45.3","39.5","80","29.98","138","0.1","1.2","0.00","0.00"
"00:09:58","45.2","39.5","80.2","29.98","138","0.1","1.2","0.01","0.01"
"00:14:59","45.2","40.1","82.5","29.98","138","0","1.2","0.01","0.01"
"00:19:59","45.1","40.5","83.7","29.97","138","0","0","0.01","0.01"
"00:24:56","44.9","41","85.8","29.97","138","0","0","0.01","0.01"
"00:29:57","44.7","40.8","86","29.97","138","0","0","0.01","0.01"
"00:34:57","44.6","40.6","85.9","29.97","138","0","0","0.01","0.00"
"00:39:56","44.5","40.6","86","29.97","139","0","1.2","0.02","0.00"
"00:44:58","44.4","40.5","86","29.97","138","0.1","1.2","0.02","0.01"
"00:49:58","44.4","40.5","86","29.96","139","0","1.2","0.02","0.01"
"00:54:56","44.3","40.4","86","29.96","139","0","0","0.02","0.01"
"00:59:56","44.3","40.5","86.1","29.96","139","0","0","0.02","0.01"
"01:04:57","44.3","41","88","29.96","139","0","0","0.02","0.02"
"01:09:58","44.3","41.2","88.6","29.96","139","0","0","0.02","0.02"
"01:14:57","44.2","40.9","88","29.96","139","0","0","0.03","0.02"
"01:19:57","44.2","41","88.2","29.94","139","0","0","0.03","0.02"
"01:24:56","44.2","41.2","89","29.94","139","0.1","2","0.03","0.02"
"01:29:58","44.2","41.2","89","29.94","131","1.8","4","0.03","0.02"
"01:34:58","44.2","41.2","89","29.94","124","2.1","5","0.04","0.03"
"01:39:59","44.2","41.2","89.2","29.94","121","1.3","3.5","0.04","0.03"
"01:44:58","44.1","41.4","90","29.94","122","0.4","2.3","0.04","0.02"
"01:49:57","44.1","41.4","90","29.94","122","0.5","2.3","0.04","0.02"
"01:54:58","44.1","41.4","90","29.94","122","0.2","2.3","0.04","0.02"
"01:59:58","44.1","41.4","90","29.94","122","0.4","2.3","0.04","0.02"
"02:04:57","44","41.3","90","29.94","122","0.7","2.3","0.04","0.02"
"02:09:58","44","41.3","90","29.94","122","0","1.2","0.04","0.02"
"02:14:58","43.9","41.3","90.4","29.94","122","0","0","0.04","0.02"
"02:19:57","43.9","41.4","91","29.93","122","0","0","0.04","0.01"
"02:24:56","43.8","41.3","91","29.93","122","0","0","0.04","0.01"
"02:29:56","43.8","41.5","91.7","29.93","122","0","0","0.04","0.01"
"02:34:59","43.7","41.5","92","29.93","122","0","0","0.04","0.01"
"02:39:57","43.7","41.5","92","29.93","122","0","0","0.04","0.00"
"02:44:59","43.7","41.6","92.4","29.94","122","0","0","0.04","0.00"
"02:49:57","43.7","41.8","93","29.94","122","0","0","0.04","0.00"
"02:54:58","43.6","41.7","93","29.94","122","0","0","0.04","0.00"
"02:59:58","43.6","41.7","93","29.94","122","0","0","0.04","0.00"
"03:04:57","43.6","41.7","93","29.93","122","0","0","0.04","0.00"
"03:09:58","43.6","41.7","93","29.93","122","0","0","0.04","0.00"
"03:14:58","43.6","41.7","93","29.93","122","0","0","0.04","0.00"
"03:19:56","43.6","41.7","93","29.93","122","0","0","0.04","0.00"
"03:24:59","43.6","41.7","93","29.93","102","0","0","0.04","0.00"
"03:29:57","43.6","41.7","93","29.93","61","0.6","3.5","0.04","0.00"
"03:34:59","43.5","41.6","93","29.93","5","1.2","4","0.04","0.00"
"03:39:57","43.5","41.6","93","29.93","5","0.8","3.5","0.04","0.00"
"03:44:57","43.4","41.4","92.7","29.94","5","0.8","3.5","0.04","0.00"
"03:49:57","43.3","41.2","92.2","29.94","5","1.2","3.5","0.04","0.00"
"03:54:58","43.3","41.1","92","29.94","5","0.4","2.3","0.04","0.00"
"03:59:59","43.2","41","92","29.94","5","0.1","2.3","0.04","0.00"
"04:04:58","43.1","40.9","92","29.94","5","0.5","2.3","0.05","0.01"
"04:09:58","43","40.8","92","29.94","5","0.6","2.3","0.05","0.01"
"04:14:59","42.9","40.7","91.8","29.94","5","0.3","2.3","0.06","0.02"
"04:19:56","42.8","40.6","92","29.93","5","0.1","2.3","0.06","0.02"
"04:24:56","42.8","40.6","92","29.93","5","0","1.2","0.06","0.02"
"04:29:56","42.7","40.6","92.2","29.93","5","0","0","0.06","0.02"
"04:34:59","42.7","40.8","93","29.93","5","0","0","0.06","0.02"
"04:39:57","42.6","40.7","93","29.93","5","0","1.2","0.06","0.02"
"04:44:56","42.6","40.7","93","29.93","5","0","0","0.06","0.02"
"04:49:58","42.5","40.6","93","29.93","5","0.2","2","0.06","0.02"
"04:54:58","42.5","40.8","93.6","29.93","5","0.6","1.2","0.06","0.02"
"04:59:56","42.5","40.9","94","29.93","5","0.2","1.2","0.06","0.02"
"05:04:57","42.5","40.9","94","29.93","5","0","0","0.06","0.02"
"05:09:58","42.5","40.9","94","29.93","5","0.4","2.3","0.06","0.01"
"05:14:57","42.5","40.9","94","29.93","5","0.1","1.2","0.06","0.01"
"05:19:59","42.5","40.9","94","29.93","5","1.1","3.5","0.06","0.00"
"05:24:56","42.5","40.9","94","29.93","5","1","3.5","0.06","0.00"
"05:29:57","42.5","40.8","93.7","29.93","5","0.1","2","0.06","0.00"
"05:34:58","42.5","40.6","93","29.93","5","0.9","2.3","0.06","0.00"
"05:39:56","42.5","40.7","93.4","29.93","5","0.9","2.3","0.06","0.00"
"05:44:59","42.5","40.9","93.8","29.93","5","0.6","2.3","0.06","0.00"
"05:49:59","42.5","40.6","93","29.93","5","0.5","2.3","0.06","0.00"
"05:54:59","42.6","40.7","93","29.93","5","0.8","2.3","0.06","0.00"
"05:59:57","42.6","40.9","93.7","29.93","5","0.8","2.3","0.06","0.00"
"06:04:58","42.6","40.9","93.8","29.92","5","0.2","1.2","0.06","0.00"
"06:09:56","42.5","40.9","94","29.92","5","0.5","1.2","0.06","0.00"
"06:14:59","42.5","40.9","94","29.93","5","0.1","1.2","0.06","0.00"
"06:19:57","42.4","40.8","94","29.93","5","0","1","0.06","0.00"
"06:24:58","42.4","40.8","94","29.93","5","0","0","0.06","0.00"
"06:29:58","42.4","40.8","94","29.93","5","0","1","0.06","0.00"
"06:34:59","42.3","40.7","94","29.93","5","0","1.2","0.06","0.00"
"06:39:58","42.3","40.7","94","29.93","5","0","0","0.06","0.00"
"06:44:56","42.3","40.7","94","29.93","5","0","0","0.06","0.00"
"06:49:57","42.2","40.6","94","29.93","5","0","0","0.06","0.00"
"06:54:59","42.2","40.6","94","29.93","5","0","0","0.06","0.00"
"06:59:58","42.2","40.6","94.2","29.93","5","0","0","0.06","0.00"
"07:04:59","42.1","40.5","94","29.93","5","0","0","0.06","0.00"
"07:09:59","42.1","40.5","94","29.93","5","0","0","0.06","0.00"
"07:14:59","42","40.4","94","29.93","5","0","0","0.06","0.00"
"07:19:59","41.9","40.4","94.2","29.93","5","0","0","0.06","0.00"
"07:24:56","42","40.7","95","29.93","5","0.1","1.2","0.06","0.00"
"07:29:56","42","40.7","95","29.93","5","0","1","0.06","0.00"
"07:34:57","42","40.7","95","29.93","5","0.2","1.2","0.06","0.00"
"07:39:58","42","40.7","95","29.93","5","0","1.2","0.06","0.00"
"07:44:58","42.1","40.8","95","29.93","5","0","1.2","0.06","0.00"
"07:49:59","42","40.7","95","29.93","5","0","0","0.06","0.00"
"07:54:57","42","40.7","95","29.93","5","0","1","0.06","0.00"
"07:59:57","42.1","40.8","95","29.93","360","0.3","4","0.06","0.00"
"08:04:59","42.4","41.1","95","29.93","360","0.4","1.2","0.06","0.00"
"08:09:59","42.6","41.3","95","29.93","360","0.4","3.5","0.06","0.00"
"08:14:59","43","41.7","95","29.93","353","1","3.5","0.06","0.00"
"08:19:58","43.4","41.9","94.2","29.93","350","0.7","3.5","0.06","0.00"
"08:24:57","43.7","41.9","93.2","29.93","349","0","2","0.06","0.00"
"08:29:57","43.9","42","92.8","29.94","349","0.3","3","0.06","0.00"
"08:34:59","44","41.8","92","29.94","349","0.2","2.3","0.06","0.00"
"08:39:59","44","41.8","92","29.94","349","0.4","1.2","0.06","0.00"
"08:44:58","44","41.7","91.5","29.94","349","0.9","3.5","0.06","0.00"
"08:49:56","44.2","41.7","91","29.94","349","0.1","3.5","0.06","0.00"
"08:54:59","44.3","41.8","91","29.94","349","0","1.2","0.06","0.00"
"08:59:56","44.4","41.9","91","29.94","5","0","1","0.06","0.00"
"09:04:57","44.5","41.8","90.5","29.93","5","0.2","1.2","0.06","0.00"
"09:09:58","44.5","42.2","91.5","29.93","5","0","0","0.06","0.00"
"09:14:59","44.5","42.3","92","29.94","5","0","0","0.06","0.00"
"09:19:59","44.5","42.3","92","29.94","5","0","0","0.06","0.00"
"09:24:59","44.5","42.3","92","29.94","5","0","0","0.06","0.00"
"09:29:57","44.6","42.5","92.4","29.94","5","0","0","0.06","0.00"
"09:34:56","44.6","42.7","93","29.94","12","0","2","0.06","0.00"
"09:39:56","44.7","42.5","92.1","29.94","327","0.5","5","0.06","0.00"
"09:44:59","45","42.1","89.7","29.94","315","1.7","4.6","0.06","0.00"
"09:49:59","45.5","41.7","86.4","29.94","322","2.4","6","0.06","0.00"
"09:54:59","46.1","41.3","83.5","29.94","329","2.3","6","0.06","0.00"
"09:59:57","46.6","41","80.6","29.94","329","3","7","0.06","0.00"
"10:04:56","47.2","40.8","78.3","29.93","321","4.5","9","0.06","0.00"
"10:08:07","47.6","40.4","75.7","29.93","331","5.1","13","0.06","0.00"
"10:14:56","48.4","40.1","73","29.94","329","5.1","12.7","0.06","0.00"
"10:19:56","48.6","40.2","72.7","29.94","315","3.9","9","0.06","0.00"
"10:24:56","48.8","40","71.4","29.94","323","3.3","10","0.06","0.00"
"10:29:59","49","40.1","71.4","29.94","309","2.2","5","0.06","0.00"
"10:34:57","49.1","39.9","70.5","29.93","319","2.2","5","0.06","0.00"
"10:39:58","49.2","40.3","71.2","29.93","301","2","5","0.06","0.00"
"10:44:58","49.5","39.1","67.3","29.93","308","3.3","7","0.06","0.00"
"10:49:58","49.8","39.1","66.6","29.93","284","3.4","10","0.06","0.00"
"10:54:57","50","39.3","66.6","29.93","282","3.5","9.2","0.06","0.00"
"10:59:56","50.1","39.4","66.4","29.93","293","3.2","11","0.06","0.00"
"11:04:57","50.2","39.5","66.5","29.93","317","2.6","11.5","0.06","0.00"
"11:09:58","50.3","38.8","64.5","29.93","304","3.7","14","0.06","0.00"
"11:14:58","50.4","38.3","63","29.93","287","4.8","13.8","0.06","0.00"
"11:19:58","50.4","38.2","62.9","29.93","286","4.5","11.5","0.06","0.00"
"11:24:58","50.4","38.1","62.6","29.93","311","3.1","11.5","0.06","0.00"
"11:29:58","50.3","38.5","63.8","29.93","279","2.3","5","0.06","0.00"
"11:34:59","50.3","38.1","62.7","29.93","299","2.9","9.2","0.06","0.00"
"11:39:57","50.4","38.2","62.8","29.93","305","3.1","8.1","0.06","0.00"
"11:44:58","50.4","38.1","62.6","29.93","297","2.6","5","0.06","0.00"
"11:49:57","50.4","37.9","62.2","29.92","303","2.1","5","0.06","0.00"
"11:54:58","50.6","38.4","62.9","29.92","272","2","5","0.06","0.00"
"11:59:59","51.3","38.7","61.8","29.92","291","2.1","7","0.06","0.00"
"12:04:56","52.4","39.2","60.7","29.91","309","4.7","19","0.06","0.00"
"12:09:57","53","37.8","56.1","29.91","333","10.8","19.6","0.06","0.00"
"12:14:58","52.6","37.7","56.8","29.91","324","8.5","18.4","0.06","0.00"
"12:19:59","52.3","38.2","58.6","29.91","330","4.8","11.5","0.06","0.00"
"12:24:59","52.1","38.2","58.9","29.91","338","7.6","17.3","0.06","0.00"
"12:29:58","52","38.7","60.4","29.91","336","7.4","17.3","0.06","0.00"
"12:34:59","51.4","38.9","62.3","29.91","335","8.7","18.4","0.06","0.00"
"12:39:57","50.5","38.9","64.3","29.91","329","7.9","17","0.06","0.00"
"12:44:57","49.8","38.6","65.2","29.92","324","7.6","17.3","0.06","0.00"
"12:49:56","49.8","39.3","66.8","29.92","323","6.1","13","0.06","0.00"
"12:54:56","50.2","38.8","64.8","29.92","337","6","14","0.06","0.00"
"12:59:59","50.6","39.4","65.1","29.92","324","4.7","15","0.06","0.00"
"13:04:59","51","38.2","61.5","29.92","308","7.1","15","0.06","0.00"
"13:09:56","50.7","37.4","60.2","29.92","315","7.2","17","0.06","0.00"
"13:14:57","50.6","37.3","60.3","29.92","312","6","17.3","0.06","0.00"
"13:19:57","50.6","37.2","59.9","29.92","330","6.3","15","0.06","0.00"
"13:24:57","50.3","36.8","59.8","29.92","284","5.8","15","0.06","0.00"
"13:29:56","49.7","36.3","59.8","29.92","305","6.2","16.1","0.06","0.00"
"13:34:56","49.7","36.4","60.2","29.92","311","5.9","13","0.06","0.00"
"13:39:58","50","36.4","59.3","29.92","330","5.7","12","0.06","0.00"
"13:44:59","50.7","36.8","58.9","29.92","298","3.8","11.5","0.06","0.00"
"13:49:59","51.2","35.5","55","29.92","336","6.5","20","0.06","0.00"
"13:54:56","51.4","33.9","51","29.92","330","6.1","19.6","0.06","0.00"
"13:59:56","51.6","31.8","46.7","29.92","298","5.8","19","0.06","0.00"
"14:04:59","51.5","29.6","42.8","29.92","317","9.4","17.3","0.06","0.00"
"14:09:56","50.8","30.5","45.6","29.92","315","5.4","12.7","0.06","0.00"
"14:14:58","50.7","32","48.5","29.93","289","5.5","13","0.06","0.00"
"14:19:57","50.7","32.2","49","29.93","309","6","16.1","0.06","0.00"
"14:24:57","50.6","29.6","44.2","29.93","322","7","15","0.06","0.00"
"14:29:58","50.3","29.3","44.1","29.93","282","5.9","13.8","0.06","0.00"
"14:34:56","50.4","29.9","45.1","29.93","285","5.7","12","0.06","0.00"
"14:39:57","50.4","29.5","44.6","29.93","331","8.7","17.3","0.06","0.00"
"14:44:57","50.6","30.4","45.7","29.93","313","4.1","12.7","0.06","0.00"
"14:49:57","50.9","29.5","43.6","29.93","257","4.7","14","0.06","0.00"
"14:54:58","50.6","26.8","39.4","29.93","256","4","13.8","0.06","0.00"
"14:59:58","50.2","26.8","40","29.94","300","5.1","12","0.06","0.00"
"15:04:56","49.7","27.8","42.5","29.94","326","4.9","12","0.06","0.00"
"15:09:56","49.4","28.1","43.5","29.94","318","3.8","7","0.06","0.00"
"15:14:56","49.1","27.8","43.5","29.94","320","3.6","11","0.06","0.00"
"15:19:56","48.7","26.9","42.4","29.94","314","5.8","16","0.06","0.00"
"15:24:56","48.3","26.5","42.5","29.94","289","4.8","11","0.06","0.00"
"15:29:57","48","26.5","43","29.95","278","5.2","13","0.06","0.00"
"15:34:57","47.7","26.2","42.8","29.95","301","4.9","11.5","0.06","0.00"
"15:39:58","47.6","26.1","43","29.95","303","4.4","14","0.06","0.00"
"15:44:58","47.4","25.6","42.3","29.96","318","6.3","13.8","0.06","0.00"
"15:49:56","47.1","24.9","41.6","29.96","340","6.3","12","0.06","0.00"
"15:54:56","46.7","24.2","41.1","29.96","326","5.2","12","0.06","0.00"
"15:59:56","46.2","23.7","40.9","29.97","337","6","14","0.06","0.00"
"16:04:58","45.8","23.4","40.9","29.97","325","5.6","13.8","0.06","0.00"
"16:09:58","45.5","23.3","41.3","29.97","332","5.1","13","0.06","0.00"
"16:14:56","45.2","24.2","43.3","29.97","319","2.7","6","0.06","0.00"
"16:19:58","44.9","23.3","42.1","29.97","328","5.5","12","0.06","0.00"
"16:24:57","44.6","23.1","42.4","29.97","324","4","11.5","0.06","0.00"
"16:29:59","44.4","23","42.5","29.98","329","3.6","10","0.06","0.00"
"16:34:56","44.2","21.8","40.7","29.98","331","7.9","15","0.06","0.00"
"16:39:57","44","22.1","41.6","29.98","326","4.9","12","0.06","0.00"
"16:44:58","43.8","22.5","42.5","29.98","331","4.9","12","0.06","0.00"
"16:49:56","43.5","22","42.2","29.98","325","4.9","11","0.06","0.00"
"16:54:57","43.3","22.3","43","29.98","342","4.9","11.5","0.06","0.00"
"16:59:56","43.1","22.6","43.8","29.99","337","3.5","10","0.06","0.00"
"17:04:56","42.9","22.9","44.8","29.99","314","3","7","0.06","0.00"
"17:09:57","42.6","22.6","44.7","29.99","329","4.2","10.4","0.06","0.00"
"17:14:59","42.5","22.4","44.6","29.99","319","3.8","7","0.06","0.00"
"17:19:56","42.4","22.7","45.5","29.99","304","3.6","7","0.06","0.00"
"17:24:57","42.2","22.7","45.7","29.99","319","4.5","10","0.06","0.00"
"17:29:58","42.1","22.8","46","29.99","312","4.3","7","0.06","0.00"
"17:34:59","42","23","46.7","29.99","313","3.8","7","0.06","0.00"
"17:39:56","41.8","22.9","46.7","29.99","313","4.5","11.5","0.06","0.00"
"17:44:56","41.8","23","47.2","30.00","343","4.6","10.4","0.06","0.00"
"17:49:57","41.6","23.3","48","30.00","331","3.4","8.1","0.06","0.00"
"17:54:57","41.3","23.3","48.3","30.00","340","3.2","7","0.06","0.00"
"17:59:59","41.1","23.6","49.3","30.01","349","2.8","6.9","0.06","0.00"
"18:04:58","40.9","23.4","49.4","30.01","343","3.5","13","0.06","0.00"
"18:09:58","40.7","23.4","49.8","30.01","331","2.8","7","0.06","0.00"
"18:14:58","40.5","23.1","49.6","30.02","328","3.6","10","0.06","0.00"
"18:19:59","40.4","23","49.5","30.02","326","3","8","0.06","0.00"
"18:24:57","40.3","22.8","49.5","30.02","332","3.2","9.2","0.06","0.00"
"18:29:58","40.1","22.9","50","30.03","323","2.7","10.4","0.06","0.00"
"18:34:56","39.9","22.8","50.2","30.03","346","3.5","7","0.06","0.00"
"18:39:56","39.9","22.8","50.1","30.03","342","3.5","11","0.06","0.00"
"18:44:58","39.8","22.7","50","30.03","331","3.4","11.5","0.06","0.00"
"18:49:59","39.8","22.7","50","30.03","324","4.4","12","0.06","0.00"
"18:54:59","39.8","22.6","49.9","30.03","334","3.9","11.5","0.06","0.00"
"18:59:59","39.8","22.7","50","30.04","340","4.4","11","0.06","0.00"
"19:04:58","39.8","22.8","50.2","30.04","332","4.7","11.5","0.06","0.00"
"19:09:59","39.8","22.7","50","30.04","335","4.8","12","0.06","0.00"
"19:14:56","39.8","22.5","49.7","30.04","322","5.5","12","0.06","0.00"
"19:19:56","39.8","22.5","49.6","30.04","339","4.6","13","0.06","0.00"
"19:24:58","39.8","22.6","49.7","30.04","339","4.5","10.4","0.06","0.00"
"19:29:58","39.7","22.5","49.7","30.04","335","4.4","12","0.06","0.00"
"19:34:59","39.6","22.5","50","30.04","333","2.4","6","0.06","0.00"
"19:39:57","39.5","22.4","50","30.04","328","3.8","10","0.06","0.00"
"19:44:59","39.4","22.5","50.5","30.06","342","1.5","5","0.06","0.00"
"19:49:58","39.2","22.4","50.6","30.06","333","2.4","6","0.06","0.00"
"19:54:59","39","22.4","51","30.06","332","3.4","10.4","0.06","0.00"
"19:59:58","38.9","22.3","51","30.06","330","3.1","10.4","0.06","0.00"
"20:04:57","38.8","22.4","51.4","30.06","336","3.9","10.4","0.06","0.00"
"20:09:58","38.6","22.5","51.8","30.06","339","3.8","11.5","0.06","0.00"
"20:14:59","38.5","22.4","52","30.06","334","3.4","10","0.06","0.00"
"20:19:59","38.4","22.3","52.2","30.06","334","3.2","7","0.06","0.00"
"20:24:59","38.2","22","51.7","30.06","344","4.8","12","0.06","0.00"
"20:29:56","38.1","21.7","51.4","30.06","341","5","11.5","0.06","0.00"
"20:34:59","38.1","21.9","51.8","30.06","341","3.9","11","0.06","0.00"
"20:39:56","37.8","21.7","51.9","30.06","340","4.3","12","0.06","0.00"
"20:44:58","37.8","21.4","51.1","30.07","340","6.2","16.1","0.06","0.00"
"20:49:58","37.9","21.4","51","30.07","327","4.1","12","0.06","0.00"
"20:54:59","37.8","21.3","51","30.07","326","3.5","12","0.06","0.00"
"20:59:58","37.6","21.3","51.3","30.07","325","3.6","11.5","0.06","0.00"
"21:04:57","37.5","21.4","51.9","30.07","335","3.6","7","0.06","0.00"
"21:09:58","37.3","21.1","51.5","30.07","336","4","9.2","0.06","0.00"
"21:14:56","37.3","21.1","51.6","30.07","337","3.7","9.2","0.06","0.00"
"21:19:56","37.1","21.1","52","30.07","330","3.8","10","0.06","0.00"
"21:24:58","36.9","20.9","52","30.07","338","3.8","12","0.06","0.00"
"21:29:58","36.8","20.8","52.1","30.07","344","3.3","11.5","0.06","0.00"
"21:34:56","36.7","20.8","52.1","30.07","340","3.8","13","0.06","0.00"
"21:39:58","36.6","21","52.8","30.07","309","3.8","11.5","0.06","0.00"
"21:44:56","36.5","21.1","53.2","30.07","342","3.3","7","0.06","0.00"
"21:49:56","36.2","20.9","53.5","30.07","338","3.9","10.4","0.06","0.00"
"21:54:57","36.1","20.8","53.3","30.07","343","4","10.4","0.06","0.00"
"21:59:59","36","20.9","54","30.07","336","3.2","12","0.06","0.00"
"22:04:58","35.9","20.9","54","30.07","354","3.6","11","0.06","0.00"
"22:09:59","35.7","20.7","54","30.07","332","3","11.5","0.06","0.00"
"22:14:58","35.6","20.7","54.4","30.07","343","2.3","7","0.06","0.00"
"22:19:58","35.4","20.8","55","30.07","323","2.1","7","0.06","0.00"
"22:24:59","35.2","20.6","55","30.07","335","1.2","5","0.06","0.00"
"22:29:59","35","20.7","55.7","30.08","324","2.1","5","0.06","0.00"
"22:34:57","34.8","20.7","56","30.08","345","2.3","5","0.06","0.00"
"22:39:56","34.6","20.6","56.3","30.08","344","1.9","6","0.06","0.00"
"22:44:57","34.4","20.7","57","30.08","332","2.1","6","0.06","0.00"
"22:49:56","34.3","20.6","57","30.08","340","2.3","6","0.06","0.00"
"22:54:57","34.1","20.8","57.8","30.08","321","2.2","6","0.06","0.00"
"22:59:58","34","20.8","58.1","30.08","325","3","6","0.06","0.00"
"23:04:57","34","20.8","58","30.08","329","2.8","8","0.06","0.00"
"23:09:58","34","20.7","57.8","30.08","335","3.2","10.4","0.06","0.00"
"23:14:56","34.1","20.9","58","30.08","338","2.2","6","0.06","0.00"
"23:19:57","34","20.8","58","30.08","346","1.6","4","0.06","0.00"
"23:24:59","33.8","20.9","58.9","30.08","5","1.8","4","0.06","0.00"
"23:29:56","33.6","20.8","59","30.08","338","0.9","3.5","0.06","0.00"
"23:34:56","33.4","20.6","59","30.08","335","1.7","5","0.06","0.00"
"23:39:57","33.2","20.6","59.3","30.08","318","0.8","4","0.06","0.00"
"23:44:57","33","20.6","60","30.08","341","1","5","0.06","0.00"
"23:49:58","32.8","20.4","60","30.08","12","0.5","3.5","0.06","0.00"
"23:54:58","32.6","20.2","60","30.08","12","0.3","3.5","0.06","0.00"
"23:59:59","32.3","20.2","60.7","30.08","12","0","1.2","0.06","0.00"
